Branson, MO

12:22 PM CST on November 19, 2017 (GMT -0600)
Branson

Weather History for KBBG - January, 2013

Change the Weather History Date:

Tuesday, January 1, 2013

  Actual Average (KHRO) Record (KHRO)
Temperature  
Mean Temperature 29 °F -  
Max Temperature 35 °F 41 °F 71 °F (1943)
Min Temperature 23 °F 22 °F -4 °F (1974)
Degree Days  
Heating Degree Days 36    
Moisture  
Dew Point 30 °F    
Average Humidity 98    
Maximum Humidity 100    
Minimum Humidity 93    
Precipitation  
Precipitation 0.00 in - - ()
Sea Level Pressure  
Sea Level Pressure 30.13 in    
Wind  
Wind Speed 4 mph (North)    
Max Wind Speed 10 mph    
Max Gust Speed -    
Visibility 2 miles    
Events Fog , Rain , Snow    
Averages and records for this station are not official NWS values.
T = Trace of Precipitation, MM = Missing Value Source: NWS Daily Summary

Daily Weather History Graph

Daily Weather History Graph

Search for Another Location

Airport or City:

Trip Planner

Search our weather history database for the weather conditions in past years. The results will help you decide how hot, cold, wet, or windy it might be!

Date:

Astronomy

Jan. 01, 2013 Rise Set
Actual Time 7:24 AM CST 5:08 PM CST
Civil Twilight 6:56 AM CST 5:37 PM CST
Nautical Twilight 6:23 AM CST 6:09 PM CST
Astronomical Twilight 5:52 AM CST 6:40 PM CST
Moon 9:32 PM CST (1/1) 9:44 AM CST (1/1)
Length of Visible Light 10h 40m
Length of Day
9h 43m
Waning Gibbous, 83% of the Moon is Illuminated
Jan 1
Waning Gibbous
Jan 4
Last Quarter
Jan 11
New
Jan 18
First Quarter
Jan 26
Full

Hourly Weather History & Observations

Time (CST) Temp. Windchill Dew Point Humidity Pressure Visibility Wind Dir Wind Speed Gust Speed Precip Events Conditions
12:15 AM 33.8 °F - 33.8 °F 100% 30.04 in 0.2 mi Calm Calm - N/A Fog Fog
12:35 AM 33.8 °F - 33.8 °F 100% 30.03 in 0.2 mi Calm Calm - N/A Fog Fog
12:55 AM 33.8 °F - 33.8 °F 100% 30.04 in 0.2 mi Calm Calm - N/A Fog Fog
1:15 AM 35.6 °F - 35.6 °F 100% 30.03 in 0.2 mi Calm Calm - N/A Fog Fog
1:35 AM 35.6 °F - 35.6 °F 100% 30.03 in 0.2 mi Calm Calm - N/A Fog Fog
1:55 AM 35.6 °F 31.7 °F 35.6 °F 100% 30.03 in 0.2 mi North 4.6 mph - N/A Fog Fog
2:15 AM 35.6 °F 30.7 °F 35.6 °F 100% 30.04 in 0.2 mi North 5.8 mph - N/A Fog Fog
2:35 AM 35.6 °F 29.9 °F 35.6 °F 100% 30.05 in 0.2 mi North 6.9 mph - N/A Fog Fog
2:55 AM 35.6 °F 30.7 °F 35.6 °F 100% 30.05 in 0.2 mi North 5.8 mph - N/A Fog Fog
3:15 AM 33.8 °F 28.6 °F 33.8 °F 100% 30.04 in 0.2 mi NNE 5.8 mph - N/A Rain Light Rain
3:35 AM 33.8 °F 29.6 °F 33.8 °F 100% 30.05 in 0.2 mi NE 4.6 mph - N/A Fog Fog
3:55 AM 33.8 °F 30.8 °F 33.8 °F 100% 30.05 in 0.2 mi NE 3.5 mph - N/A Fog Fog
4:15 AM 33.8 °F - 33.8 °F 100% 30.05 in 0.2 mi Calm Calm - N/A Fog Fog
4:35 AM 33.8 °F 30.8 °F 33.8 °F 100% 30.05 in 0.5 mi NNE 3.5 mph - N/A Fog Fog
4:55 AM 33.8 °F - 33.8 °F 100% 30.07 in 2.0 mi Calm Calm - N/A   Overcast
5:15 AM 33.8 °F 29.6 °F 33.8 °F 100% 30.07 in 5.0 mi NE 4.6 mph - N/A   Overcast
5:35 AM 33.8 °F 30.8 °F 33.8 °F 100% 30.08 in 5.0 mi NNE 3.5 mph - N/A   Overcast
6:52 AM 33.8 °F 27.7 °F 33.8 °F 100% 30.11 in 0.5 mi North 6.9 mph - N/A Fog Fog
7:58 AM 32.0 °F 24.2 °F 32.0 °F 100% 30.11 in 0.8 mi North 9.2 mph - N/A   Overcast
9:51 AM 32.0 °F 25.6 °F 32.0 °F 100% 30.15 in 1.0 mi NNE 6.9 mph - N/A   Overcast
10:51 AM 32.0 °F 25.6 °F 32.0 °F 100% 30.16 in 1.5 mi North 6.9 mph - N/A   Overcast
11:14 AM 32.0 °F 24.8 °F 32.0 °F 100% 30.16 in 0.1 mi NNW 8.1 mph - N/A Fog Fog
11:46 AM 32.0 °F 24.2 °F 32.0 °F 100% 30.15 in 1.0 mi North 9.2 mph - N/A   Overcast
12:50 PM 32.0 °F 23.6 °F 32.0 °F 100% 30.14 in 0.8 mi NNW 10.4 mph - N/A   Overcast
1:45 PM 30.2 °F 22.6 °F 30.2 °F 100% 30.15 in 0.8 mi NNW 8.1 mph - N/A   Overcast
2:50 PM 30.2 °F 22.6 °F 30.2 °F 100% 30.16 in 0.5 mi NNW 8.1 mph - N/A Fog , Snow Light Snow
3:47 PM 28.4 °F 19.1 °F 28.4 °F 100% 30.18 in 2.0 mi NNW 10.4 mph - N/A Rain Light Freezing Rain
4:48 PM 28.4 °F 21.2 °F 28.4 °F 100% 30.19 in 2.5 mi NNW 6.9 mph - N/A   Overcast
5:45 PM 28.4 °F 21.2 °F 28.4 °F 100% 30.20 in 4.0 mi NNW 6.9 mph - N/A   Overcast
6:50 PM 28.4 °F 21.2 °F 26.6 °F 93% 30.21 in 5.0 mi NNW 6.9 mph - N/A   Overcast
7:55 PM 26.6 °F 19.1 °F 26.6 °F 100% 30.22 in 5.0 mi NNW 6.9 mph - N/A   Overcast
8:15 PM 26.6 °F 18.2 °F 24.8 °F 93% 30.24 in 5.0 mi NW 8.1 mph - N/A   Overcast
8:35 PM 26.6 °F 18.2 °F 24.8 °F 93% 30.23 in 5.0 mi NNW 8.1 mph - N/A   Mostly Cloudy
8:55 PM 24.8 °F 20.5 °F 24.8 °F 100% 30.22 in 6.0 mi NNW 3.5 mph - N/A   Partly Cloudy
9:15 PM 24.8 °F 17.9 °F 23.0 °F 93% 30.22 in 5.0 mi North 5.8 mph - N/A   Clear
9:35 PM 24.8 °F 19.1 °F 23.0 °F 93% 30.21 in 6.0 mi North 4.6 mph - N/A   Clear
9:55 PM 24.8 °F 17.9 °F 23.0 °F 93% 30.21 in 5.0 mi North 5.8 mph - N/A   Clear
10:15 PM 24.8 °F 17.9 °F 23.0 °F 93% 30.21 in 5.0 mi NNW 5.8 mph - N/A   Clear
10:35 PM 24.8 °F - 23.0 °F 93% 30.23 in 4.0 mi Calm Calm - N/A   Partly Cloudy
10:55 PM 23.0 °F - 23.0 °F 100% 30.23 in 4.0 mi Calm Calm - N/A   Clear
11:15 PM 23.0 °F 15.8 °F 23.0 °F 100% 30.24 in 4.0 mi NNW 5.8 mph - N/A   Clear
11:35 PM 23.0 °F 17.0 °F 21.2 °F 93% 30.23 in 4.0 mi NNW 4.6 mph - N/A   Scattered Clouds
11:55 PM 23.0 °F 17.0 °F 21.2 °F 93% 30.22 in 5.0 mi NNW 4.6 mph - N/A   Partly Cloudy